[keps] orb07123.2l.amsat

Ray Hoad r.hoad at att.net
Thu May 3 20:19:54 PDT 2007


SB KEPS @ AMSAT  $ORB07123.N
2Line Orbital Elements 07123.AMSAT

HR AMSAT ORBITAL ELEMENTS FOR AMATEUR SATELLITES IN NASA FORMAT
FROM WA5QGD FORT WORTH,TX May 3, 2007
Send Subscribe/unsubscribe to KEPS at 
http://www.amsat.org/mailman/listinfo/keps
BID: ORB07123.N

DECODE 2-LINE ELSETS WITH THE FOLLOWING KEY:
1 AAAAAU 00  0  0 BBBBB.BBBBBBBB  .CCCCCCCC  00000-0  00000-0 0  DDDZ
2 AAAAA EEE.EEEE FFF.FFFF GGGGGGG HHH.HHHH III.IIII JJ.JJJJJJJJKKKKKZ
KEY: A-CATALOGNUM B-EPOCHTIME C-DECAY D-ELSETNUM E-INCLINATION F-RAAN
G-ECCENTRICITY H-ARGPERIGEE I-MNANOM J-MNMOTION K-ORBITNUM Z-CHECKSUM

TO ALL RADIO AMATEURS BT

AO-07
1 07530U 74089B   07122.73161735 -.00000028  00000-0  10000-3 0 08666
2 07530 101.5184 162.0709 0012129 345.8945 014.1782 12.53572604485426
AO-10
1 14129U 83058B   07119.48597038  .00000052  00000-0  10000-3 0 03808
2 14129 026.6407 279.5892 6058402 017.9775 356.3864 02.05869008179568
UO-11
1 14781U 84021B   07123.48797399 -.00000063  00000-0 -10128-5 0  3638
2 14781 098.1913 145.3223 0008734 322.8649 037.1958 14.79544945243127
RS-15
1 23439U 94085A   07122.92731725 -.00000039  00000-0  10597-3 0 00826
2 23439 064.8165 080.1100 0160723 198.8972 160.5942 11.27552024508599
FO-29
1 24278U 96046B   07122.94423280  .00000009  00000-0  45796-4 0 04957
2 24278 098.5464 088.6745 0350442 200.4027 158.2816 13.52929359528781
SO-33
1 25509U 98061B   07122.41010899  .00000276  00000-0  44550-4 0 09187
2 25509 031.4305 124.5516 0354788 027.1571 334.7146 14.28165857444705
AO-40
1 26609U 00072B   07122.95437375 -.00000002  00000-0  00000 0 0  8729
2 26609 005.2006 151.2733 7990259 310.2214 003.6104 01.25586302 29876
VO-52
1 28650U 05017B   07123.39185839  .00000251  00000-0  38667-4 0  6172
2 28650 097.8340 195.1069 0027980 041.7400 318.5893 14.81305176107783
PO-63
1 29712U 07001D   07123.74915908  .00000950  00000-0  13349-3 0  3288
2 29712 097.9237 183.5205 0012873 273.7146 086.2594 14.79662748 16763
AO-16
1 20439U 90005D   07123.50429957  .00000041  00000-0  30416-4 0   259
2 20439 098.1944 120.5257 0010558 325.9513 034.0997 14.31758388902151
LO-19
1 20442U 90005G   07123.48037590 -.00000023  00000-0  66127-5 0  9527
2 20442 098.1798 129.9118 0011381 324.0520 035.9902 14.31998900902291
AO-27
1 22825U 93061C   07123.46235104 -.00000145  00000-0 -40786-4 0  6758
2 22825 098.3272 095.3017 0009269 039.4905 320.6968 14.29206113709103
IO-26
1 22826U 93061D   07122.46740975  .00000037  00000-0  30774-4 0 03712
2 22826 098.3202 095.4405 0009826 038.1305 322.0564 14.29452985709049
PO-28
1 22829U 93061G   07123.49519839  .00000031  00000-0  27846-4 0  6490
2 22829 098.3086 097.5954 0010268 010.5661 349.5731 14.30152509709428
GO-32
1 25397U 98043D   07123.30368780  .00000114  00000-0  68888-4 0  2911
2 25397 098.4174 172.4725 0001585 037.3237 322.8051 14.23124898457776
MO-46
1 26548U 00057D   07122.46777099  .00000253  00000-0  48780-4 0 07852
2 26548 064.5577 324.1058 0020909 202.8593 157.1605 14.83130870356760
NO-44
1 26931U 01043C   07123.44998406  .00000085  00000-0  65533-4 0  5777
2 26931 067.0515 262.7280 0007343 274.1763 085.8500 14.29483007291704
SO-50
1 27607U 02058C   07123.46533127  .00000072  00000-0  33368-4 0  3036
2 27607 064.5590 220.8133 0049226 012.9808 347.2551 14.71253189234549
CO-55
1 27844U 03031E   07122.32040577  .00000086  00000-0  60593-4 0 00185
2 27844 098.7196 131.2495 0009108 220.0590 139.9917 14.20507552198961
CO-57
1 27848U 03031J   07121.98290195  .00000065  00000-0  50969-4 0 09781
2 27848 098.7182 130.1281 0008955 226.8839 133.1597 14.20327012198893
AO-51
1 28375U 04025K   07122.58713430  .00000011  00000-0  16500-4 0 08064
2 28375 098.1176 164.2467 0084280 321.5009 038.0196 14.40564399149153
CO-56
1 28941U 06005C   07122.88263826  .00026840  24111-5  27957-3 0  4251
2 28941 098.1352 178.9730 0232662 073.6687 288.9982 15.38217089 66469
HO-59
1 29484U 06041F   07123.23672869  .00062906  33492-5  44387-3 0  2951
2 29484 098.2909 166.2641 0221148 067.1830 295.2216 15.47973330 34113
NO-60
1 29661U 06055C   07123.82485990  .00227530  34677-4  31352-3 0  2279
2 29661 051.6385 319.9088 0007847 202.2924 157.7746 16.05560616 21308
NO-61
1 29664U 06055F   07123.68386775  .00029657  11411-4  11342-3 0  1375
2 29664 051.6328 326.5215 0014454 166.5607 193.5783 15.88808807 21076
CP4
1 31122U 07012F   07123.28222853  .00000139  00000-0  41193-4 0   259
2 31122 098.0868 198.0099 0086643 163.9184 196.4801 14.54994258  2322
CP3
1 31128U 07012M   07123.45492228 -.00000047  00000-0  00000 0 0   176
2 31128 098.0845 198.0970 0104002 163.3485 197.1190 14.51827569  2336
LIBERT
1 31129U 07012N   07123.66074979  .00000385  00000-0  10000-3 0   527
2 31129 098.0841 198.2945 0102929 162.7157 197.7585 14.51913583  2349
NOAA-10
1 16969U 86073A   07122.59733711 -.00000057  00000-0 -50117-5 0 06432
2 16969 098.7473 139.7484 0011681 303.5798 056.4278 14.27323190072721
NOAA-11
1 19531U 88089A   07122.30588078  .00000180  00000-0  11607-3 0 06403
2 19531 098.8096 212.0403 0011954 157.7906 202.3819 14.14843764959660
NOAA-12
1 21263U 91032A   07122.61000120 -.00000074  00000-0 -12295-4 0 01360
2 21263 098.7514 119.9279 0011944 237.8052 122.1989 14.25526967829754
MET-3/5
1 21655U 91056A   07122.97049297  .00000051  00000-0  10000-3 0 02969
2 21655 082.5514 034.8823 0013196 327.4127 032.6176 13.17010709755450
MET-2/21
1 22782U 93055A   07123.38908751 -.00000080  00000-0 -85316-4 0  8140
2 22782 082.5461 077.4513 0022744 006.3201 353.8245 13.83616395690322
OKEAN-4
1 23317U 94066A   07122.55358308  .00000218  00000-0  24102-4 0 02515
2 23317 082.5407 339.1156 0023614 045.9182 314.3982 14.82496091677292
NOAA-14
1 23455U 94089A   07122.78361334  .00000085  00000-0  68723-4 0 06200
2 23455 098.9912 188.7199 0008885 223.5657 136.4784 14.13715745636221
SICH-1
1 23657U 95046A   07122.42786067  .00000275  00000-0  31940-4 0 00546
2 23657 082.5244 120.1639 0025191 037.2534 323.0458 14.81476534629256
NOAA-15
1 25338U 98030A   07123.50357221  .00000021  00000-0  27293-4 0  9797
2 25338 098.5286 121.4479 0011007 154.9102 205.2609 14.24638542466324
RESURS
1 25394U 98043A   07122.96225656  .00000006  00000-0  20731-4 0 06484
2 25394 098.4468 179.2762 0001561 001.0285 359.0897 14.24133817457918
FENGYUN1
1 25730U 99025A   07123.70675394  .00000215  00000-0  15242-3 0   925
2 25730 098.6879 109.2650 0019317 254.7386 105.1637 14.07467441411215
OKEAN-0
1 25860U 99039A   07121.57845750  .00000085  00000-0  20351-4 0 00419
2 25860 097.7308 126.0069 0001373 102.4031 257.7338 14.73447894418634
NOAA-16
1 26536U 00055A   07122.64013022  .00000112  00000-0  85951-4 0 03925
2 26536 099.1133 098.7960 0009843 304.9313 055.0964 14.12422375340676
NOAA-17
1 27453U 02032A   07122.77262156 -.00000006  00000-0  15982-4 0 04043
2 27453 098.5815 193.1587 0011261 222.0577 137.9711 14.23874107252251
NOAA-18
1 28654U 05018A   07122.80134117  .00000073  00000-0  64510-4 0 09413
2 28654 098.8260 064.8510 0015059 039.7526 320.4713 14.11059917100454
HUBBLE
1 20580U 90037B   07123.63581523  .00000453  00000-0  22396-4 0  8650
2 20580 028.4659 120.6303 0003456 349.7776 010.2732 15.00231520733262
UARS
1 21701U 91063B   07122.94749003  .00006717  00000-0  11277-3 0 00609
2 21701 056.9724 150.2044 0099699 104.3075 256.9080 15.47759405858743
PO-34
1 25520U 98064B   07122.97868305  .00000692  00000-0  24401-4 0 07304
2 25520 028.4599 051.3212 0005722 125.8767 234.2361 15.16983366470650
ISS
1 25544U 98067A   07124.11384417  .00018576  00000-0  11269-3 0  1400
2 25544 051.6343 331.6004 0010596 141.3056 312.4533 15.77531181483816
OO-38
1 26063U 00004C   07123.43154868  .00000015  00000-0  25599-4 0  9005
2 26063 100.2265 117.7871 0036515 286.0428 073.6739 14.35803893380625
UWE-1
1 28892U 05043C   07121.72987645  .00000176  00000-0  46873-4 0 07365
2 28892 098.1354 019.2847 0016247 257.7881 102.1496 14.59494916080430
CO-58
1 28895U 05043F   07123.42394900  .00000151  00000-0  41569-4 0  7172
2 28895 098.1415 021.1429 0016898 250.7698 109.1659 14.59544053 80560
NCUBE2
1 28897U 05043H   07122.68115021  .00000170  00000-0  45328-4 0  2416
2 28897 098.1366 020.3729 0016060 256.3135 103.6284 14.59705285 72739
NMARS
1 29662U 06055D   07123.76661677  .01771625  12032-4  49203-3 0  2557
2 29662 051.6270 317.1225 0007050 244.9936 115.0336 16.27061286 21223
FCAL
1 29667U 06055J   07123.82060316  .00020142  00000-0  79767-4 0  1277
2 29667 051.6371 326.7014 0015610 166.8629 193.2782 15.86590893 20951
FALCON
1 30776U 07006E   07122.40977818  .00000418  00000-0  33803-4 0 00469
2 30776 035.4324 130.1655 0000872 031.7595 328.3174 15.02691488008161
MAST
1 31126U 07012K   07123.43817764  .00000394  00000-0  10000-3 0   223
2 31126 098.0854 198.1180 0095455 163.4552 196.9777 14.53335617  2355
CAPE1
1 31130U 07012P   07122.90338267  .00000217  00000-0  61177-4 0 00175
2 31130 098.0833 197.5635 0103473 165.0355 195.3913 14.51845069002040
/EX






More information about the Keps mailing list